Location: Street
(51.1247°N, 2.7429°W)
Time: 09:01:31
(UTC+01:00)

PCSat - Pass Details

Date: 02 April 2023
Orbit: 783 x 794 km, 67.1° (Epoch: 29 May)

Event Time Altitude Azimuth Distance (km) Brightness Sun altitude
Rises 23:33:04 0° 323° (NW) 3,302 14.0 -29.7°
Reaches altitude 10° 23:35:34 10° 329° (NNW) 2,371 13.0 -29.9°
Enters shadow 23:40:22 49° 26° (NNE) 1,024 10.2 -30.3°
